GW6919 Weather Reports


Display with metric or nautical units.
time (UTC)temp
F
wind
direction
speed
MPH
gust
MPH
rain 1hr
in
rain 24hr
in
rain mn
in
humidity
%
barometer
mb
20260507084938 54 192 2.0 5.0 0.00 0.00 0.00 78 1021.1
20260507084435 54 214 0.0 1.0 0.00 0.00 0.00 78 1021.0
20260507083932 54 215 0.0 1.0 0.00 0.00 0.00 78 1021.1
20260507083429 54 221 0.0 1.0 0.00 0.00 0.00 78 1021.0
20260507082925 54 189 0.0 0.0 0.00 0.00 0.00 78 1021.0
20260507082421 54 236 0.0 1.0 0.00 0.00 0.00 78 1021.1
20260507081918 54 214 1.0 2.0 0.00 0.00 0.00 78 1021.1
20260507081414 54 191 0.0 1.0 0.00 0.00 0.00 78 1021.2
20260507080911 54 209 0.0 1.0 0.00 0.00 0.00 79 1021.1
20260507080407 54 223 0.0 1.0 0.00 0.00 0.00 79 1021.0
20260507075902 54 224 0.0 0.0 0.00 0.00 0.00 79 1021.0
20260507075359 54 241 0.0 0.0 0.00 0.00 0.00 79 1021.1
20260507074855 54 233 0.0 0.0 0.00 0.00 0.00 79 1021.3
20260507074352 54 244 0.0 0.0 0.00 0.00 0.00 79 1021.2
20260507073850 54 192 0.0 0.0 0.00 0.00 0.00 79 1021.0
20260507073346 54 209 0.0 0.0 0.00 0.00 0.00 79 1021.1
20260507072844 54 213 0.0 0.0 0.00 0.00 0.00 79 1020.9
20260507072341 54 228 0.0 1.0 0.00 0.00 0.00 79 1021.1
20260507071838 54 127 0.0 1.0 0.00 0.00 0.00 79 1020.9
20260507071335 54 260 0.0 0.0 0.00 0.00 0.00 79 1020.9
20260507070831 55 191 0.0 1.0 0.00 0.00 0.00 79 1020.6
20260507070329 55 117 1.0 2.0 0.00 0.00 0.00 78 1020.8
20260507065826 55 185 0.0 0.0 0.00 0.00 0.00 78 1021.0
20260507065322 55 225 0.0 0.0 0.00 0.00 0.00 78 1020.9
20260507064820 55 239 0.0 0.0 0.00 0.00 0.00 78 1021.0
20260507064318 55 241 0.0 1.0 0.00 0.00 0.00 78 1020.8
20260507063816 55 234 1.0 1.0 0.00 0.00 0.00 78 1021.0
20260507063312 55 107 1.0 1.0 0.00 0.00 0.00 78 1020.9
20260507062809 55 240 0.0 1.0 0.00 0.00 0.00 78 1021.0
20260507062306 55 191 0.0 0.0 0.00 0.00 0.00 78 1020.9
20260507061804 55 231 0.0 1.0 0.00 0.00 0.00 78 1021.1
20260507061302 55 267 0.0 1.0 0.00 0.00 0.00 78 1021.0
20260507060800 55 243 0.0 1.0 0.00 0.00 0.00 78 1020.9
20260507060256 55 155 0.0 1.0 0.00 0.00 0.00 78 1021.0
20260507055752 55 247 0.0 2.0 0.00 0.00 0.00 78 1020.9
20260507055248 55 91 0.0 2.0 0.00 0.00 0.00 78 1020.9
20260507054744 55 184 0.0 2.0 0.00 0.00 0.00 78 1020.8
20260507054241 55 181 0.0 1.0 0.00 0.00 0.00 78 1020.8
20260507053739 55 161 0.0 2.0 0.00 0.00 0.00 78 1021.0
20260507053236 55 180 0.0 1.0 0.00 0.00 0.00 78 1021.0
20260507052735 56 124 1.0 2.0 0.00 0.00 0.00 77 1020.9
20260507052231 56 126 1.0 2.0 0.00 0.00 0.00 77 1020.7
20260507051729 56 150 0.0 1.0 0.00 0.00 0.00 77 1020.9
20260507051226 56 298 0.0 1.0 0.00 0.00 0.00 77 1020.9
20260507050722 56 267 1.0 2.0 0.00 0.00 0.00 76 1020.9
20260507050220 56 128 1.0 2.0 0.00 0.00 0.00 76 1021.1
20260507045716 56 37 0.0 3.0 0.00 0.00 0.00 76 1020.9
20260507045212 56 175 0.0 2.0 0.00 0.00 0.00 76 1020.8
20260507044710 56 201 0.0 1.0 0.00 0.00 0.00 76 1021.0
20260507044206 56 117 3.0 3.0 0.00 0.00 0.00 76 1020.8
20260507043702 57 84 2.0 3.0 0.00 0.00 0.00 76 1020.9
20260507043159 57 67 4.0 7.0 0.00 0.00 0.00 76 1020.9
20260507042656 57 42 3.0 5.0 0.00 0.00 0.00 76 1020.8
20260507042150 57 111 3.0 6.0 0.00 0.00 0.00 76 1020.7
20260507041648 57 105 0.0 3.0 0.00 0.00 0.00 76 1020.8
20260507041144 58 25 1.0 2.0 0.00 0.00 0.00 75 1020.6
20260507040641 58 103 1.0 5.0 0.00 0.00 0.00 75 1020.8
20260507040138 58 154 1.0 5.0 0.00 0.00 0.00 75 1020.5
20260507035634 58 104 2.0 5.0 0.00 0.00 0.00 75 1020.6
20260507035130 58 154 3.0 5.0 0.00 0.00 0.00 75 1020.6
20260507034627 59 72 1.0 2.0 0.00 0.00 0.00 75 1020.4
20260507034124 59 208 0.0 3.0 0.00 0.00 0.00 75 1020.4
20260507033623 59 100 1.0 2.0 0.00 0.00 0.00 75 1020.3
20260507033119 59 115 1.0 2.0 0.00 0.00 0.00 75 1020.4
20260507032617 59 113 2.0 2.0 0.00 0.00 0.00 75 1020.2
20260507032113 60 149 0.0 2.0 0.00 0.00 0.00 75 1020.1
20260507031609 60 82 1.0 2.0 0.00 0.00 0.00 76 1020.3
20260507031106 60 14 1.0 2.0 0.00 0.00 0.00 75 1020.0
20260507030603 60 89 1.0 3.0 0.00 0.00 0.00 75 1019.9
20260507030101 60 150 1.0 2.0 0.00 0.00 0.00 74 1019.8
20260507025558 60 6 1.0 2.0 0.00 0.00 0.00 74 1019.9
20260507025055 60 151 0.0 2.0 0.00 0.00 0.00 74 1019.8
20260507024553 60 143 1.0 2.0 0.00 0.00 0.00 74 1019.7
20260507024049 60 183 2.0 2.0 0.00 0.00 0.00 74 1019.8
20260507023545 60 166 0.0 2.0 0.00 0.00 0.00 74 1019.7
20260507023043 61 157 1.0 1.0 0.00 0.00 0.00 74 1019.6
20260507022539 61 122 2.0 2.0 0.00 0.00 0.00 73 1019.6
20260507022035 62 125 2.0 3.0 0.00 0.00 0.00 73 1019.6
20260507021531 62 141 1.0 2.0 0.00 0.00 0.00 72 1019.8
20260507021028 62 130 1.0 5.0 0.00 0.00 0.00 72 1019.8
20260507020525 63 75 1.0 2.0 0.00 0.00 0.00 71 1019.7
20260507020021 63 213 0.0 1.0 0.00 0.00 0.00 71 1019.6
20260507015520 63 239 1.0 1.0 0.00 0.00 0.00 71 1019.6
20260507015017 63 169 1.0 3.0 0.00 0.00 0.00 71 1019.8
20260507014513 63 209 0.0 1.0 0.00 0.00 0.00 71 1019.9
20260507014009 64 111 1.0 2.0 0.00 0.00 0.00 71 1019.8
20260507013506 64 356 1.0 1.0 0.00 0.00 0.00 70 1019.8
20260507013004 64 140 1.0 3.0 0.00 0.00 0.00 70 1019.9
20260507012500 64 134 1.0 3.0 0.00 0.00 0.00 71 1019.8
20260507011957 64 107 1.0 2.0 0.00 0.00 0.00 70 1019.8
20260507011454 64 105 3.0 3.0 0.00 0.00 0.00 70 1019.8
20260507010950 65 206 0.0 3.0 0.00 0.00 0.00 69 1019.8
20260507010444 65 103 0.0 2.0 0.00 0.00 0.00 69 1019.7
20260507005941 65 64 1.0 1.0 0.00 0.00 0.00 69 1019.7
20260507005439 66 23 0.0 3.0 0.00 0.00 0.00 69 1019.7
20260507004935 66 43 2.0 3.0 0.00 0.00 0.00 68 1019.6
20260507004432 66 8 0.0 2.0 0.00 0.00 0.00 68 1019.8
20260507003929 67 35 0.0 2.0 0.00 0.00 0.00 68 1019.7
20260507003424 67 96 1.0 3.0 0.00 0.00 0.00 68 1019.5
20260507002920 67 263 0.0 1.0 0.00 0.00 0.00 69 1019.7
20260507002416 66 177 1.0 2.0 0.00 0.00 0.00 70 1019.4
20260507001914 66 230 0.0 2.0 0.00 0.00 0.00 71 1019.5
20260507001410 66 39 0.0 2.0 0.00 0.00 0.00 72 1019.6
20260507000908 66 339 1.0 1.0 0.00 0.00 0.00 72 1019.6
20260507000405 66 97 0.0 1.0 0.00 0.00 0.00 72 1019.7
20260506235859 66 167 1.0 2.0 0.00 0.00 0.00 72 1019.7
20260506235356 66 324 0.0 1.0 0.00 0.00 0.00 72 1019.6
20260506234852 66 263 0.0 1.0 0.00 0.00 0.00 72 1019.6
20260506234350 65 74 1.0 2.0 0.00 0.00 0.00 72 1019.6
20260506233847 66 64 2.0 2.0 0.00 0.00 0.00 71 1019.6
20260506233343 66 147 0.0 1.0 0.00 0.00 0.00 72 1019.7
20260506232840 66 137 0.0 2.0 0.00 0.00 0.00 71 1019.7
20260506232336 66 155 1.0 2.0 0.00 0.00 0.00 70 1019.6
20260506231832 66 71 1.0 1.0 0.00 0.00 0.00 70 1019.7
20260506231330 66 229 0.0 1.0 0.00 0.00 0.00 70 1019.7
20260506230827 66 147 1.0 2.0 0.00 0.00 0.00 69 1019.8
20260506230324 67 89 1.0 2.0 0.00 0.00 0.00 68 1020.0
20260506225820 68 92 1.0 2.0 0.00 0.00 0.00 68 1019.8
20260506225318 68 149 1.0 2.0 0.00 0.00 0.00 68 1019.9
20260506224814 67 317 0.0 1.0 0.00 0.00 0.00 68 1019.9
20260506224312 67 171 0.0 1.0 0.00 0.00 0.00 69 1019.9
20260506223808 68 198 0.0 1.0 0.00 0.00 0.00 67 1020.0
20260506223303 68 238 0.0 1.0 0.00 0.00 0.00 66 1019.9
20260506222800 68 135 1.0 2.0 0.00 0.00 0.00 64 1020.1
20260506222256 68 196 0.0 1.0 0.00 0.00 0.00 64 1019.9
20260506221754 68 124 0.0 1.0 0.00 0.00 0.00 65 1020.0
20260506221252 67 237 1.0 2.0 0.00 0.00 0.00 65 1020.1
20260506220750 68 257 1.0 1.0 0.00 0.00 0.00 65 1020.2
20260506220249 68 219 0.0 0.0 0.00 0.00 0.00 65 1020.2
20260506215747 68 124 1.0 2.0 0.00 0.00 0.00 65 1020.1
20260506215242 68 257 1.0 5.0 0.00 0.00 0.00 64 1020.1
20260506214739 69 228 2.0 2.0 0.00 0.00 0.00 63 1020.0
20260506214236 69 220 3.0 3.0 0.00 0.00 0.00 62 1020.1
20260506213734 69 220 1.0 3.0 0.00 0.00 0.00 65 1020.1
20260506213231 68 251 1.0 2.0 0.00 0.00 0.00 66 1020.0
20260506212728 68 285 3.0 3.0 0.00 0.00 0.00 66 1020.1
20260506212224 66 240 0.0 2.0 0.00 0.00 0.00 69 1020.3
20260506211719 66 233 2.0 5.0 0.00 0.00 0.00 70 1020.4
20260506211216 66 251 0.0 3.0 0.00 0.00 0.00 70 1020.5
20260506210713 65 53 0.0 1.0 0.00 0.00 0.00 72 1020.5
20260506210210 64 251 1.0 2.0 0.00 0.00 0.00 74 1020.5
20260506205708 64 250 0.0 1.0 0.00 0.00 0.00 73 1020.6
20260506205208 65 236 2.0 2.0 0.00 0.00 0.00 72 1020.6
20260506204705 64 54 0.0 1.0 0.00 0.00 0.00 72 1020.6
20260506204202 64 97 0.0 1.0 0.00 0.00 0.00 73 1020.5
20260506203700 64 260 1.0 2.0 0.00 0.00 0.00 74 1020.5
20260506203157 64 278 0.0 2.0 0.00 0.00 0.00 74 1020.6
20260506202655 63 228 1.0 1.0 0.00 0.00 0.00 74 1020.6
20260506202151 64 262 1.0 1.0 0.00 0.00 0.00 72 1020.4
20260506201648 63 267 0.0 1.0 0.00 0.00 0.00 75 1020.4
20260506201144 63 261 0.0 3.0 0.00 0.00 0.00 75 1020.4
20260506200641 64 265 2.0 3.0 0.00 0.00 0.00 74 1020.5
20260506200138 63 228 0.0 0.0 0.00 0.00 0.00 74 1020.6
20260506195634 62 192 0.0 2.0 0.00 0.00 0.00 75 1020.5
20260506195130 62 255 0.0 2.0 0.00 0.00 0.00 77 1020.6
20260506194628 62 230 2.0 2.0 0.00 0.00 0.00 76 1020.8
20260506194124 62 228 0.0 0.0 0.00 0.00 0.00 77 1020.8
20260506193622 62 271 0.0 0.0 0.00 0.00 0.00 77 1020.9
20260506193119 62 274 1.0 1.0 0.00 0.00 0.00 76 1020.9
20260506192616 62 261 0.0 1.0 0.00 0.00 0.00 77 1021.0
20260506192112 62 64 1.0 1.0 0.00 0.00 0.00 76 1020.8
20260506191609 62 243 0.0 2.0 0.00 0.00 0.00 77 1020.8
20260506191104 62 253 0.0 0.0 0.00 0.00 0.00 76 1020.8
20260506190602 62 233 0.0 0.0 0.00 0.00 0.00 75 1020.9
20260506190059 62 254 0.0 1.0 0.00 0.00 0.00 77 1020.8
20260506185556 61 224 0.0 1.0 0.00 0.00 0.00 77 1020.8
20260506185053 61 255 0.0 3.0 0.00 0.00 0.00 78 1020.8
20260506184550 60 271 0.0 0.0 0.00 0.00 0.00 78 1020.9
20260506184047 60 229 2.0 2.0 0.00 0.00 0.00 79 1020.8
20260506183543 60 248 1.0 3.0 0.00 0.00 0.00 79 1020.9
20260506183040 61 267 3.0 3.0 0.00 0.00 0.00 77 1020.6
20260506182537 61 201 0.0 0.0 0.00 0.00 0.00 77 1020.7
20260506182034 61 155 0.0 0.0 0.00 0.00 0.00 78 1020.7
20260506181532 60 238 0.0 1.0 0.00 0.00 0.00 78 1020.7
20260506181029 60 241 0.0 2.0 0.00 0.00 0.00 79 1020.6
20260506180525 60 266 0.0 1.0 0.00 0.00 0.00 79 1020.6
20260506180022 60 261 0.0 2.0 0.00 0.00 0.00 79 1020.5
20260506175519 60 252 0.0 1.0 0.00 0.00 0.00 79 1020.8
20260506175015 60 256 0.0 0.0 0.00 0.00 0.00 77 1020.5
20260506174514 60 230 0.0 1.0 0.00 0.00 0.00 77 1020.6
20260506174009 60 277 0.0 0.0 0.00 0.00 0.00 77 1020.5
20260506173507 60 258 0.0 1.0 0.00 0.00 0.00 78 1020.5
20260506173004 60 254 1.0 1.0 0.00 0.00 0.00 77 1020.2
20260506172502 60 172 0.0 1.0 0.00 0.00 0.00 77 1020.3
20260506171957 60 181 1.0 1.0 0.00 0.00 0.00 78 1020.2
20260506171455 60 253 0.0 1.0 0.00 0.00 0.00 79 1020.3
20260506170953 59 189 0.0 1.0 0.00 0.00 0.00 80 1020.4
20260506170449 59 253 0.0 0.0 0.00 0.00 0.00 79 1020.3
20260506165947 59 252 0.0 1.0 0.00 0.00 0.00 80 1020.2
20260506165446 59 237 0.0 2.0 0.00 0.00 0.00 80 1020.6
20260506164942 59 254 0.0 1.0 0.00 0.00 0.00 79 1020.3
20260506164439 59 241 0.0 1.0 0.00 0.00 0.00 80 1020.3
20260506163937 59 219 0.0 0.0 0.00 0.00 0.00 79 1020.3
20260506163432 59 210 0.0 1.0 0.00 0.00 0.00 79 1020.3
20260506162927 59 174 1.0 2.0 0.00 0.00 0.00 80 1020.5
20260506162425 59 136 0.0 1.0 0.00 0.00 0.00 80 1020.3
20260506161922 59 142 1.0 2.0 0.00 0.00 0.00 79 1020.2
20260506161420 59 209 0.0 1.0 0.00 0.00 0.00 79 1020.2
20260506160916 58 132 0.0 1.0 0.00 0.00 0.00 81 1020.3
20260506160414 58 112 1.0 2.0 0.00 0.00 0.00 81 1020.1
20260506155912 58 259 0.0 1.0 0.00 0.00 0.00 81 1020.0
20260506155409 58 259 1.0 1.0 0.00 0.00 0.00 81 1019.8
20260506153530 57 213 0.0 0.0 0.00 0.00 0.00 83 1019.8
20260506153028 57 176 1.0 1.0 0.00 0.00 0.00 83 1020.0
20260506152525 56 211 0.0 2.0 0.00 0.00 0.00 84 1020.3
20260506152023 56 146 0.0 1.0 0.00 0.00 0.00 84 1020.3
20260506151520 56 212 0.0 2.0 0.00 0.00 0.00 85 1020.4
20260506151017 56 28 1.0 2.0 0.00 0.00 0.00 85 1020.3
20260506150513 56 150 1.0 2.0 0.00 0.00 0.00 85 1020.5
20260506150011 56 177 1.0 5.0 0.00 0.00 0.00 85 1020.3
20260506145507 56 110 1.0 2.0 0.00 0.00 0.00 85 1020.2
20260506145005 56 201 0.0 2.0 0.00 0.00 0.00 86 1020.1
20260506144501 56 247 0.0 1.0 0.00 0.00 0.00 86 1020.1
20260506143959 56 213 0.0 1.0 0.00 0.00 0.00 86 1020.3
20260506143456 56 224 0.0 1.0 0.00 0.00 0.00 86 1020.1
20260506142955 56 24 0.0 0.0 0.00 0.00 0.00 86 1019.9
20260506142452 56 20 0.0 1.0 0.00 0.00 0.00 86 1019.9
20260506141949 56 185 0.0 0.0 0.00 0.00 0.00 86 1019.7
20260506141447 56 192 0.0 0.0 0.00 0.00 0.00 86 1019.6
20260506140946 56 210 0.0 0.0 0.00 0.00 0.00 86 1019.6
20260506140442 56 211 0.0 1.0 0.00 0.00 0.00 86 1019.5
20260506135939 56 213 0.0 0.0 0.00 0.00 0.00 87 1019.6
20260506135436 56 245 0.0 0.0 0.00 0.00 0.00 87 1019.4
20260506134932 56 188 0.0 1.0 0.00 0.00 0.00 87 1019.6
20260506134429 56 259 0.0 0.0 0.00 0.00 0.00 87 1019.4
20260506133926 56 178 1.0 2.0 0.00 0.00 0.00 87 1019.4
20260506133423 56 228 0.0 0.0 0.00 0.00 0.00 86 1019.4
20260506132919 56 249 0.0 0.0 0.00 0.00 0.00 86 1019.4
20260506132416 56 248 0.0 0.0 0.00 0.00 0.00 86 1019.3
20260506131914 56 249 0.0 0.0 0.00 0.00 0.00 86 1019.2
20260506131410 56 249 0.0 0.0 0.00 0.00 0.00 86 1019.1
20260506130907 56 242 0.0 0.0 0.00 0.00 0.00 86 1019.0
20260506130403 56 241 0.0 0.0 0.00 0.00 0.00 87 1019.0
20260506125902 56 240 0.0 0.0 0.00 0.00 0.00 86 1018.9
20260506125400 56 240 0.0 0.0 0.00 0.00 0.00 86 1018.9
20260506124858 56 240 0.0 0.0 0.00 0.00 0.00 86 1018.8
20260506124354 56 211 0.0 0.0 0.00 0.00 0.00 86 1018.9
20260506123852 56 212 0.0 0.0 0.00 0.00 0.00 86 1019.0
20260506123351 56 305 0.0 1.0 0.00 0.00 0.00 86 1018.7
20260506122847 56 210 0.0 0.0 0.00 0.00 0.00 86 1018.9
20260506122344 56 214 0.0 0.0 0.00 0.00 0.00 86 1018.7
20260506121843 56 205 0.0 0.0 0.00 0.00 0.00 86 1018.9
20260506121339 56 211 0.0 0.0 0.00 0.00 0.00 86 1018.9
20260506120836 56 182 0.0 1.0 0.00 0.00 0.00 86 1019.0
20260506120334 56 153 0.0 1.0 0.00 0.00 0.00 85 1018.8
20260506115831 56 191 0.0 1.0 0.00 0.00 0.00 86 1018.7
20260506115329 56 201 0.0 1.0 0.00 0.00 0.00 86 1018.7
20260506114827 56 181 0.0 0.0 0.00 0.00 0.00 85 1018.7
20260506114325 56 167 0.0 0.0 0.00 0.00 0.00 85 1018.4
20260506113823 57 174 0.0 0.0 0.00 0.00 0.00 85 1018.4
20260506113320 57 171 0.0 0.0 0.00 0.00 0.00 85 1018.5
20260506112816 57 26 0.0 2.0 0.00 0.00 0.00 85 1018.5
20260506112314 57 53 0.0 1.0 0.00 0.00 0.00 85 1018.4
20260506111811 57 174 0.0 1.0 0.00 0.00 0.00 85 1018.2
20260506111309 57 261 0.0 1.0 0.00 0.00 0.00 85 1018.3
20260506110807 57 275 0.0 0.0 0.00 0.00 0.00 85 1018.2
20260506110303 57 298 0.0 1.0 0.00 0.00 0.00 85 1018.1
20260506105800 57 194 0.0 0.0 0.00 0.00 0.00 85 1018.1
20260506105257 57 136 0.0 0.0 0.00 0.00 0.00 85 1018.1
20260506104754 57 197 0.0 0.0 0.00 0.00 0.00 85 1018.0
20260506104252 57 188 0.0 1.0 0.00 0.00 0.00 85 1017.8
20260506103749 57 164 1.0 2.0 0.00 0.00 0.00 85 1017.8
20260506103247 57 224 0.0 1.0 0.00 0.00 0.00 85 1017.8
20260506102744 57 29 1.0 2.0 0.00 0.00 0.00 85 1017.6
20260506102242 57 6 0.0 0.0 0.00 0.00 0.00 84 1017.7
20260506101739 57 333 0.0 2.0 0.00 0.00 0.00 84 1017.6
20260506101235 57 237 0.0 0.0 0.00 0.00 0.00 85 1017.4
20260506100733 57 212 0.0 0.0 0.00 0.00 0.00 84 1017.3
20260506100231 57 201 0.0 0.0 0.00 0.00 0.00 84 1017.4
20260506095729 57 199 0.0 1.0 0.00 0.00 0.00 84 1017.5
20260506095226 57 184 0.0 0.0 0.00 0.00 0.00 84 1017.6
20260506094723 57 189 0.0 0.0 0.00 0.00 0.00 84 1017.4
20260506094221 57 175 0.0 0.0 0.00 0.00 0.00 84 1017.5
20260506093720 57 31 0.0 0.0 0.00 0.00 0.00 84 1017.4
20260506093216 57 194 0.0 1.0 0.00 0.00 0.00 84 1017.2
20260506092714 57 149 1.0 1.0 0.00 0.00 0.00 84 1017.5
20260506092211 57 187 0.0 0.0 0.00 0.00 0.00 84 1017.4
20260506091709 57 185 0.0 0.0 0.00 0.00 0.00 83 1017.3
20260506091206 57 184 0.0 0.0 0.00 0.00 0.00 83 1017.4
20260506090704 58 200 0.0 1.0 0.00 0.00 0.00 83 1017.3
20260506090200 58 160 0.0 1.0 0.00 0.00 0.00 83 1017.3
20260506085657 58 161 0.0 1.0 0.00 0.00 0.00 83 1017.3